Tracking 27380 objects as of 5-Jun-2023
HD Live streaming from Space Station
objects crossing your sky now

STARLINK-1069

Track STARLINK-1069 now!
10-day predictions
STARLINK-1069 is classified as:


NORAD ID: 44955
Int'l Code: 2020-001AT
Perigee: 553.6 km
Apogee: 555.0 km
Inclination: 53.1 °
Period: 95.6 minutes
Semi major axis: 6925 km
RCS: Unknown
Launch date: January 7, 2020
Source: United States (US)
Launch site: AIR FORCE EASTERN TEST RANGE (AFETR)
Your satellite tracking list
Your tracking list is empty




NASA's NSSDC Master Catalog

Two Line Element Set (TLE):
1 44955U 20001AT  23155.37681440  .00001473  00000-0  11772-3 0  9995
2 44955  53.0537 157.6017 0001016 101.0054 259.1049 15.06408466188229
Source of the keplerian elements: AFSPC